{"data":{"norad_id":67932,"epoch":"2026-09-19T11:32:43.078560Z","epoch_age_seconds":151209,"freshness":"FRESH","line1":"1 67932U 26037A   26262.48105415  .00011712  00000+0  43432-3 0  9991","line2":"2 67932  43.0022 176.7183 0001253 268.2895  91.7813 15.27588492 32975","mean_motion":15.27588492,"eccentricity":0.0001253,"inclination_deg":43.0022,"raan_deg":176.7183,"arg_perigee_deg":268.2895,"mean_anomaly_deg":91.7813,"bstar":0.00043432,"rev_number":3297,"period_min":94.266224676429,"perigee_km":482.16396462276,"apogee_km":483.88337148618,"semimajor_km":6861.1606680545,"source":"CELESTRAK","updated_at":"2026-09-20T09:00:43.706558Z"}}